Location: Unspecified
(0.0000°N, 0.0000°E)
Time: 03:48:59
(UTC+02:00)

Meteor PRIRODA - Visible Passes

Search period start: 19 April 2014 00:00
Search period end: 29 April 2014 00:00
Orbit: 512 x 538 km, 97.3° (Epoch: 17 April)

Date Brightness Start Highest point End Pass type
(mag) Time Alt. Az. Time Alt. Az. Time Alt. Az.
19 Apr 6.1 06:25:16 10° NE 06:28:18 23° ESE 06:31:22 10° SSE visible
20 Apr 6.7 06:14:02 10° ENE 06:16:18 15° ESE 06:18:36 10° SE visible
22 Apr 4.3 07:22:47 10° NNW 07:26:14 35° W 07:29:43 10° SW visible
23 Apr 3.8 07:10:30 10° N 07:14:11 56° W 07:17:56 10° SSW visible
24 Apr 3.7 06:58:22 10° NNE 07:02:08 89° E 07:05:57 10° S visible
25 Apr 4.4 06:46:22 10° NNE 06:50:04 54° E 06:53:49 10° S visible
26 Apr 5.4 06:34:33 10° NE 06:38:00 34° ESE 06:41:29 10° SSE visible
27 Apr 6.2 06:22:56 10° NE 06:25:55 22° ESE 06:28:56 10° SSE visible
28 Apr 6.7 06:11:39 10° ENE 06:13:50 15° ESE 06:16:01 10° SE visible
